| time (UTC) | temp C | wind direction | speed KPH | gust KPH | rain 1hr cm | rain 24hr cm | rain mn cm | humidity % | barometer mb |
| 20260507043258 | 27 | 121 | 45.1 | 56.3 | 0.00 | 0.00 | 0.00 | 83 | 1012.4 |
| 20260507042754 | 27 | 115 | 46.7 | 64.4 | 0.00 | 0.00 | 0.00 | 82 | 1012.5 |
| 20260507042249 | 27 | 110 | 35.4 | 61.2 | 0.00 | 0.00 | 0.00 | 82 | 1012.6 |
| 20260507041747 | 27 | 99 | 35.4 | 48.3 | 0.00 | 0.00 | 0.00 | 82 | 1012.6 |
| 20260507041244 | 27 | 162 | 33.8 | 61.2 | 0.00 | 0.00 | 0.00 | 82 | 1012.8 |
| 20260507040741 | 27 | 121 | 46.7 | 53.1 | 0.00 | 0.00 | 0.00 | 82 | 1012.8 |
| 20260507040237 | 27 | 140 | 27.4 | 53.1 | 0.00 | 0.00 | 0.00 | 82 | 1012.7 |
| 20260507035733 | 27 | 114 | 45.1 | 72.4 | 0.00 | 0.00 | 0.00 | 82 | 1012.7 |
| 20260507035228 | 27 | 126 | 43.5 | 64.4 | 0.00 | 0.00 | 0.00 | 82 | 1012.7 |
| 20260507034726 | 27 | 131 | 38.6 | 64.4 | 0.00 | 0.00 | 0.00 | 82 | 1012.8 |
| 20260507034223 | 27 | 112 | 33.8 | 48.3 | 0.00 | 0.00 | 0.00 | 82 | 1012.7 |
| 20260507033721 | 27 | 124 | 30.6 | 64.4 | 0.00 | 0.00 | 0.00 | 82 | 1013.0 |
| 20260507033218 | 27 | 92 | 33.8 | 64.4 | 0.00 | 0.00 | 0.00 | 82 | 1013.1 |
| 20260507032716 | 27 | 107 | 40.2 | 69.2 | 0.00 | 0.00 | 0.00 | 82 | 1013.0 |
| 20260507032211 | 27 | 98 | 40.2 | 64.4 | 0.00 | 0.00 | 0.00 | 82 | 1013.0 |
| 20260507031708 | 27 | 132 | 61.2 | 64.4 | 0.00 | 0.00 | 0.00 | 83 | 1013.0 |
| 20260507031205 | 27 | 102 | 46.7 | 61.2 | 0.00 | 0.00 | 0.00 | 82 | 1013.0 |
| 20260507030702 | 27 | 147 | 38.6 | 56.3 | 0.00 | 0.00 | 0.00 | 83 | 1013.2 |
| 20260507030159 | 27 | 104 | 37.0 | 53.1 | 0.00 | 0.00 | 0.00 | 82 | 1013.0 |
| 20260507025657 | 27 | 121 | 37.0 | 56.3 | 0.00 | 0.00 | 0.00 | 82 | 1013.0 |
| 20260507025153 | 27 | 129 | 33.8 | 48.3 | 0.00 | 0.00 | 0.00 | 83 | 1013.1 |
| 20260507024652 | 27 | 115 | 25.7 | 53.1 | 0.00 | 0.00 | 0.00 | 82 | 1013.0 |
| 20260507024148 | 27 | 93 | 32.2 | 72.4 | 0.00 | 0.00 | 0.00 | 82 | 1013.1 |
| 20260507023644 | 27 | 162 | 46.7 | 61.2 | 0.00 | 0.00 | 0.00 | 82 | 1012.9 |
| 20260507023141 | 27 | 108 | 35.4 | 61.2 | 0.00 | 0.00 | 0.00 | 82 | 1012.9 |
| 20260507022638 | 27 | 107 | 54.7 | 72.4 | 0.00 | 0.00 | 0.00 | 82 | 1012.8 |
| 20260507022134 | 27 | 147 | 38.6 | 77.2 | 0.00 | 0.00 | 0.00 | 82 | 1012.8 |
| 20260507021631 | 27 | 111 | 38.6 | 61.2 | 0.00 | 0.00 | 0.00 | 82 | 1012.8 |
| 20260507021126 | 27 | 116 | 33.8 | 77.2 | 0.00 | 0.00 | 0.00 | 82 | 1012.7 |
| 20260507020625 | 27 | 129 | 40.2 | 64.4 | 0.00 | 0.00 | 0.00 | 82 | 1012.8 |
| 20260507020120 | 27 | 122 | 33.8 | 56.3 | 0.00 | 0.00 | 0.00 | 82 | 1012.8 |
| 20260507015619 | 27 | 99 | 53.1 | 64.4 | 0.00 | 0.00 | 0.00 | 82 | 1012.6 |
| 20260507015116 | 27 | 118 | 40.2 | 69.2 | 0.00 | 0.00 | 0.00 | 82 | 1012.6 |
| 20260507014613 | 27 | 123 | 33.8 | 56.3 | 0.00 | 0.00 | 0.00 | 82 | 1012.4 |
| 20260507014108 | 27 | 96 | 37.0 | 72.4 | 0.00 | 0.00 | 0.00 | 82 | 1012.2 |
| 20260507013605 | 27 | 113 | 37.0 | 61.2 | 0.00 | 0.00 | 0.00 | 82 | 1012.0 |
| 20260507013102 | 27 | 129 | 45.1 | 64.4 | 0.00 | 0.00 | 0.00 | 82 | 1012.2 |
| 20260507012600 | 27 | 110 | 35.4 | 69.2 | 0.00 | 0.00 | 0.00 | 82 | 1012.1 |
| 20260507012055 | 27 | 117 | 43.5 | 69.2 | 0.00 | 0.00 | 0.00 | 82 | 1012.0 |
| 20260507011553 | 27 | 114 | 48.3 | 64.4 | 0.00 | 0.00 | 0.00 | 82 | 1012.1 |
| 20260507011049 | 27 | 173 | 43.5 | 69.2 | 0.00 | 0.00 | 0.00 | 82 | 1011.9 |
| 20260507010544 | 27 | 112 | 33.8 | 69.2 | 0.00 | 0.00 | 0.00 | 82 | 1012.0 |
| 20260507010040 | 27 | 110 | 53.1 | 69.2 | 0.00 | 0.00 | 0.00 | 82 | 1011.9 |
| 20260507005538 | 27 | 87 | 37.0 | 53.1 | 0.00 | 0.00 | 0.00 | 82 | 1011.8 |
| 20260507005034 | 27 | 120 | 40.2 | 53.1 | 0.00 | 0.00 | 0.00 | 82 | 1011.4 |
| 20260507004531 | 27 | 117 | 38.6 | 61.2 | 0.00 | 0.00 | 0.00 | 82 | 1011.7 |
| 20260507004029 | 27 | 124 | 41.8 | 61.2 | 0.00 | 0.00 | 0.00 | 82 | 1011.6 |
| 20260507003524 | 27 | 133 | 40.2 | 56.3 | 0.00 | 0.00 | 0.00 | 82 | 1011.5 |
| 20260507003019 | 27 | 129 | 41.8 | 53.1 | 0.00 | 0.00 | 0.00 | 82 | 1011.5 |
| 20260507002516 | 27 | 122 | 22.5 | 37.0 | 0.00 | 0.00 | 0.00 | 81 | 1011.6 |
| 20260507002013 | 27 | 104 | 41.8 | 61.2 | 0.00 | 0.00 | 0.00 | 81 | 1011.6 |
| 20260507001509 | 27 | 135 | 33.8 | 45.1 | 0.00 | 0.00 | 0.00 | 81 | 1011.4 |
| 20260507001007 | 27 | 110 | 43.5 | 53.1 | 0.00 | 0.00 | 0.00 | 81 | 1011.5 |
| 20260507000502 | 27 | 102 | 35.4 | 48.3 | 0.00 | 0.00 | 0.00 | 81 | 1011.5 |
| 20260506235957 | 27 | 99 | 30.6 | 45.1 | 0.00 | 0.00 | 0.00 | 81 | 1011.5 |
| 20260506235455 | 27 | 73 | 25.7 | 45.1 | 0.00 | 0.00 | 0.00 | 81 | 1011.6 |
| 20260506234951 | 27 | 89 | 30.6 | 56.3 | 0.00 | 0.00 | 0.00 | 81 | 1011.5 |
| 20260506234449 | 27 | 103 | 33.8 | 56.3 | 0.00 | 0.00 | 0.00 | 81 | 1011.3 |
| 20260506233946 | 27 | 112 | 29.0 | 45.1 | 0.00 | 0.00 | 0.00 | 81 | 1011.2 |
| 20260506233443 | 27 | 100 | 24.1 | 48.3 | 0.00 | 0.00 | 0.00 | 81 | 1011.1 |
| 20260506232939 | 27 | 122 | 22.5 | 61.2 | 0.00 | 0.00 | 0.00 | 81 | 1011.2 |
| 20260506232435 | 27 | 122 | 46.7 | 53.1 | 0.00 | 0.00 | 0.00 | 81 | 1011.0 |
| 20260506231931 | 27 | 99 | 37.0 | 56.3 | 0.00 | 0.00 | 0.00 | 81 | 1011.2 |
| 20260506231429 | 27 | 112 | 32.2 | 69.2 | 0.00 | 0.00 | 0.00 | 80 | 1011.1 |
| 20260506230926 | 27 | 117 | 25.7 | 45.1 | 0.00 | 0.00 | 0.00 | 80 | 1011.1 |
| 20260506230422 | 27 | 115 | 32.2 | 40.2 | 0.00 | 0.00 | 0.00 | 80 | 1011.0 |
| 20260506225919 | 27 | 116 | 37.0 | 56.3 | 0.00 | 0.00 | 0.00 | 80 | 1010.8 |
| 20260506225416 | 27 | 105 | 32.2 | 56.3 | 0.00 | 0.00 | 0.00 | 80 | 1010.6 |
| 20260506224913 | 28 | 129 | 38.6 | 53.1 | 0.00 | 0.00 | 0.00 | 80 | 1010.9 |
| 20260506224411 | 28 | 102 | 32.2 | 72.4 | 0.00 | 0.00 | 0.00 | 80 | 1010.8 |
| 20260506223906 | 28 | 95 | 27.4 | 56.3 | 0.00 | 0.00 | 0.00 | 79 | 1010.7 |
| 20260506223402 | 28 | 128 | 40.2 | 61.2 | 0.00 | 0.00 | 0.00 | 79 | 1010.7 |
| 20260506222859 | 28 | 84 | 30.6 | 77.2 | 0.00 | 0.00 | 0.00 | 78 | 1010.6 |
| 20260506222355 | 28 | 103 | 38.6 | 48.3 | 0.00 | 0.00 | 0.00 | 78 | 1010.6 |
| 20260506221853 | 28 | 118 | 45.1 | 64.4 | 0.00 | 0.00 | 0.00 | 78 | 1010.4 |
| 20260506221350 | 28 | 74 | 40.2 | 64.4 | 0.00 | 0.00 | 0.00 | 77 | 1010.5 |
| 20260506220848 | 28 | 110 | 40.2 | 53.1 | 0.00 | 0.00 | 0.00 | 77 | 1010.5 |
| 20260506220343 | 28 | 88 | 30.6 | 53.1 | 0.00 | 0.00 | 0.00 | 77 | 1010.5 |
| 20260506215840 | 28 | 97 | 30.6 | 69.2 | 0.00 | 0.00 | 0.00 | 77 | 1010.6 |
| 20260506215336 | 28 | 138 | 43.5 | 64.4 | 0.00 | 0.00 | 0.00 | 76 | 1010.5 |
| 20260506214832 | 29 | 109 | 35.4 | 64.4 | 0.00 | 0.00 | 0.00 | 76 | 1010.4 |
| 20260506214329 | 29 | 69 | 20.9 | 48.3 | 0.00 | 0.00 | 0.00 | 76 | 1010.5 |
| 20260506213827 | 29 | 105 | 20.9 | 61.2 | 0.00 | 0.00 | 0.00 | 76 | 1010.5 |
| 20260506213324 | 29 | 132 | 40.2 | 61.2 | 0.00 | 0.00 | 0.00 | 75 | 1010.5 |
| 20260506212821 | 29 | 77 | 27.4 | 45.1 | 0.00 | 0.00 | 0.00 | 75 | 1010.4 |
| 20260506212317 | 29 | 117 | 45.1 | 64.4 | 0.00 | 0.00 | 0.00 | 75 | 1010.4 |
| 20260506211812 | 30 | 73 | 19.3 | 53.1 | 0.00 | 0.00 | 0.00 | 75 | 1010.4 |
| 20260506211308 | 30 | 119 | 37.0 | 53.1 | 0.00 | 0.00 | 0.00 | 73 | 1010.4 |
| 20260506210806 | 30 | 103 | 24.1 | 53.1 | 0.00 | 0.00 | 0.00 | 73 | 1010.4 |
| 20260506210303 | 30 | 80 | 40.2 | 48.3 | 0.00 | 0.00 | 0.00 | 73 | 1010.4 |
| 20260506205800 | 30 | 96 | 24.1 | 56.3 | 0.00 | 0.00 | 0.00 | 72 | 1010.4 |
| 20260506205255 | 30 | 132 | 24.1 | 40.2 | 0.00 | 0.00 | 0.00 | 73 | 1010.5 |
| 20260506204752 | 30 | 101 | 27.4 | 53.1 | 0.00 | 0.00 | 0.00 | 73 | 1010.5 |
| 20260506204250 | 30 | 129 | 32.2 | 40.2 | 0.00 | 0.00 | 0.00 | 73 | 1010.7 |
| 20260506203748 | 30 | 113 | 32.2 | 48.3 | 0.00 | 0.00 | 0.00 | 72 | 1010.7 |
| 20260506203245 | 30 | 93 | 37.0 | 64.4 | 0.00 | 0.00 | 0.00 | 72 | 1010.6 |
| 20260506202742 | 30 | 145 | 27.4 | 40.2 | 0.00 | 0.00 | 0.00 | 72 | 1010.7 |
| 20260506202238 | 30 | 113 | 33.8 | 53.1 | 0.00 | 0.00 | 0.00 | 73 | 1010.6 |
| 20260506201735 | 30 | 126 | 40.2 | 77.2 | 0.00 | 0.00 | 0.00 | 72 | 1010.8 |
| 20260506201232 | 31 | 118 | 37.0 | 48.3 | 0.00 | 0.00 | 0.00 | 71 | 1011.0 |
| 20260506200729 | 30 | 112 | 27.4 | 53.1 | 0.00 | 0.00 | 0.00 | 72 | 1010.7 |
| 20260506200226 | 30 | 115 | 38.6 | 53.1 | 0.00 | 0.00 | 0.00 | 73 | 1010.8 |
| 20260506195722 | 30 | 115 | 25.7 | 61.2 | 0.00 | 0.00 | 0.00 | 74 | 1011.2 |
| 20260506195218 | 30 | 132 | 38.6 | 61.2 | 0.00 | 0.00 | 0.00 | 73 | 1011.0 |
| 20260506194715 | 30 | 122 | 29.0 | 64.4 | 0.00 | 0.00 | 0.00 | 74 | 1011.2 |
| 20260506194212 | 30 | 115 | 32.2 | 72.4 | 0.00 | 0.00 | 0.00 | 74 | 1010.9 |
| 20260506193710 | 30 | 108 | 17.7 | 45.1 | 0.00 | 0.00 | 0.00 | 73 | 1011.1 |
| 20260506193207 | 30 | 103 | 40.2 | 56.3 | 0.00 | 0.00 | 0.00 | 74 | 1011.1 |
| 20260506192703 | 30 | 121 | 27.4 | 69.2 | 0.00 | 0.00 | 0.00 | 74 | 1011.1 |
| 20260506192200 | 30 | 108 | 37.0 | 80.5 | 0.00 | 0.00 | 0.00 | 74 | 1011.0 |
| 20260506191657 | 30 | 133 | 38.6 | 56.3 | 0.00 | 0.00 | 0.00 | 73 | 1011.1 |
| 20260506191153 | 30 | 103 | 49.9 | 72.4 | 0.00 | 0.00 | 0.00 | 74 | 1011.1 |
| 20260506190650 | 30 | 121 | 41.8 | 64.4 | 0.00 | 0.00 | 0.00 | 74 | 1011.0 |
| 20260506190147 | 30 | 134 | 43.5 | 72.4 | 0.00 | 0.00 | 0.00 | 74 | 1011.3 |
| 20260506185644 | 30 | 97 | 41.8 | 61.2 | 0.00 | 0.00 | 0.00 | 74 | 1011.3 |
| 20260506185140 | 30 | 111 | 38.6 | 48.3 | 0.00 | 0.00 | 0.00 | 74 | 1011.1 |
| 20260506184638 | 30 | 110 | 43.5 | 61.2 | 0.00 | 0.00 | 0.00 | 73 | 1011.4 |
| 20260506184135 | 30 | 94 | 35.4 | 64.4 | 0.00 | 0.00 | 0.00 | 74 | 1011.4 |
| 20260506183631 | 30 | 104 | 37.0 | 72.4 | 0.00 | 0.00 | 0.00 | 73 | 1011.6 |
| 20260506183127 | 30 | 139 | 51.5 | 69.2 | 0.00 | 0.00 | 0.00 | 74 | 1011.7 |
| 20260506182625 | 30 | 136 | 48.3 | 61.2 | 0.00 | 0.00 | 0.00 | 74 | 1011.6 |
| 20260506182122 | 30 | 80 | 45.1 | 77.2 | 0.00 | 0.00 | 0.00 | 74 | 1011.8 |
| 20260506181620 | 30 | 132 | 38.6 | 69.2 | 0.00 | 0.00 | 0.00 | 74 | 1011.7 |
| 20260506181117 | 30 | 118 | 49.9 | 77.2 | 0.00 | 0.00 | 0.00 | 73 | 1011.9 |
| 20260506180614 | 30 | 123 | 48.3 | 69.2 | 0.00 | 0.00 | 0.00 | 72 | 1012.0 |
| 20260506180110 | 30 | 107 | 38.6 | 77.2 | 0.00 | 0.00 | 0.00 | 73 | 1012.1 |
| 20260506175606 | 30 | 132 | 45.1 | 69.2 | 0.00 | 0.00 | 0.00 | 73 | 1012.2 |
| 20260506175102 | 30 | 123 | 45.1 | 61.2 | 0.00 | 0.00 | 0.00 | 73 | 1012.3 |
| 20260506174601 | 30 | 123 | 45.1 | 53.1 | 0.00 | 0.00 | 0.00 | 72 | 1012.3 |
| 20260506174057 | 30 | 111 | 25.7 | 48.3 | 0.00 | 0.00 | 0.00 | 73 | 1012.5 |
| 20260506173555 | 31 | 139 | 46.7 | 69.2 | 0.00 | 0.00 | 0.00 | 72 | 1012.6 |
| 20260506173052 | 31 | 133 | 27.4 | 40.2 | 0.00 | 0.00 | 0.00 | 72 | 1012.7 |
| 20260506172549 | 30 | 111 | 24.1 | 53.1 | 0.00 | 0.00 | 0.00 | 74 | 1012.7 |
| 20260506172045 | 31 | 123 | 33.8 | 40.2 | 0.00 | 0.00 | 0.00 | 72 | 1012.9 |
| 20260506171543 | 31 | 142 | 38.6 | 56.3 | 0.00 | 0.00 | 0.00 | 72 | 1013.0 |
| 20260506171041 | 31 | 102 | 35.4 | 48.3 | 0.00 | 0.00 | 0.00 | 72 | 1013.2 |
| 20260506170538 | 30 | 125 | 38.6 | 72.4 | 0.00 | 0.00 | 0.00 | 73 | 1013.2 |
| 20260506170035 | 31 | 124 | 32.2 | 53.1 | 0.00 | 0.00 | 0.00 | 72 | 1013.3 |
| 20260506165533 | 30 | 157 | 40.2 | 69.2 | 0.00 | 0.00 | 0.00 | 73 | 1013.5 |
| 20260506165029 | 30 | 96 | 37.0 | 45.1 | 0.00 | 0.00 | 0.00 | 73 | 1013.3 |
| 20260506164526 | 30 | 104 | 40.2 | 56.3 | 0.00 | 0.00 | 0.00 | 72 | 1013.5 |
| 20260506164023 | 30 | 127 | 29.0 | 61.2 | 0.00 | 0.00 | 0.00 | 73 | 1013.5 |
| 20260506163520 | 30 | 110 | 30.6 | 56.3 | 0.00 | 0.00 | 0.00 | 73 | 1013.7 |
| 20260506163015 | 30 | 117 | 35.4 | 53.1 | 0.00 | 0.00 | 0.00 | 73 | 1013.7 |
| 20260506162512 | 30 | 109 | 32.2 | 48.3 | 0.00 | 0.00 | 0.00 | 74 | 1013.7 |
| 20260506162009 | 30 | 121 | 45.1 | 64.4 | 0.00 | 0.00 | 0.00 | 73 | 1013.7 |
| 20260506161507 | 30 | 98 | 41.8 | 56.3 | 0.00 | 0.00 | 0.00 | 73 | 1013.8 |
| 20260506161003 | 30 | 109 | 32.2 | 56.3 | 0.00 | 0.00 | 0.00 | 73 | 1013.6 |
| 20260506160501 | 30 | 124 | 43.5 | 56.3 | 0.00 | 0.00 | 0.00 | 73 | 1013.7 |
| 20260506155958 | 30 | 100 | 33.8 | 61.2 | 0.00 | 0.00 | 0.00 | 73 | 1013.7 |
| 20260506155457 | 30 | 113 | 45.1 | 64.4 | 0.00 | 0.00 | 0.00 | 73 | 1013.8 |
| 20260506153628 | 30 | 91 | 51.5 | 69.2 | 0.00 | 0.00 | 0.00 | 73 | 1013.7 |
| 20260506153125 | 30 | 118 | 37.0 | 56.3 | 0.00 | 0.00 | 0.00 | 74 | 1013.6 |
| 20260506152622 | 30 | 119 | 51.5 | 69.2 | 0.00 | 0.00 | 0.00 | 73 | 1013.8 |
| 20260506152120 | 30 | 110 | 41.8 | 56.3 | 0.00 | 0.00 | 0.00 | 73 | 1013.8 |
| 20260506151618 | 30 | 125 | 33.8 | 64.4 | 0.00 | 0.00 | 0.00 | 74 | 1013.7 |
| 20260506151115 | 30 | 149 | 49.9 | 61.2 | 0.00 | 0.00 | 0.00 | 73 | 1013.5 |
| 20260506150612 | 30 | 118 | 49.9 | 64.4 | 0.00 | 0.00 | 0.00 | 73 | 1013.7 |
| 20260506150108 | 30 | 162 | 33.8 | 56.3 | 0.00 | 0.00 | 0.00 | 74 | 1013.8 |
| 20260506145605 | 30 | 123 | 37.0 | 64.4 | 0.00 | 0.00 | 0.00 | 75 | 1013.7 |
| 20260506145102 | 29 | 133 | 45.1 | 64.4 | 0.00 | 0.00 | 0.00 | 75 | 1013.6 |
| 20260506144559 | 30 | 134 | 49.9 | 72.4 | 0.00 | 0.00 | 0.00 | 74 | 1013.5 |
| 20260506144056 | 30 | 101 | 48.3 | 64.4 | 0.00 | 0.00 | 0.00 | 74 | 1013.7 |
| 20260506143554 | 30 | 160 | 41.8 | 61.2 | 0.00 | 0.00 | 0.00 | 75 | 1013.6 |
| 20260506143052 | 30 | 113 | 53.1 | 64.4 | 0.00 | 0.00 | 0.00 | 75 | 1013.8 |
| 20260506142550 | 30 | 98 | 40.2 | 64.4 | 0.00 | 0.00 | 0.00 | 75 | 1013.8 |
| 20260506142048 | 29 | 71 | 37.0 | 61.2 | 0.00 | 0.00 | 0.00 | 75 | 1014.0 |
| 20260506141545 | 29 | 111 | 49.9 | 72.4 | 0.00 | 0.00 | 0.00 | 75 | 1014.0 |
| 20260506141043 | 30 | 103 | 54.7 | 64.4 | 0.00 | 0.00 | 0.00 | 75 | 1014.0 |
| 20260506140540 | 29 | 121 | 45.1 | 72.4 | 0.00 | 0.00 | 0.00 | 75 | 1013.8 |
| 20260506140038 | 29 | 104 | 56.3 | 77.2 | 0.00 | 0.00 | 0.00 | 75 | 1014.0 |
| 20260506135534 | 30 | 117 | 35.4 | 61.2 | 0.00 | 0.00 | 0.00 | 75 | 1013.9 |
| 20260506135030 | 29 | 111 | 30.6 | 56.3 | 0.00 | 0.00 | 0.00 | 76 | 1013.8 |
| 20260506134527 | 29 | 100 | 41.8 | 56.3 | 0.00 | 0.00 | 0.00 | 76 | 1013.6 |
| 20260506134023 | 29 | 106 | 49.9 | 64.4 | 0.00 | 0.00 | 0.00 | 75 | 1013.7 |
| 20260506133520 | 29 | 97 | 41.8 | 64.4 | 0.00 | 0.00 | 0.00 | 75 | 1013.7 |
| 20260506133017 | 29 | 124 | 37.0 | 61.2 | 0.00 | 0.00 | 0.00 | 75 | 1013.8 |
| 20260506132514 | 29 | 105 | 41.8 | 61.2 | 0.00 | 0.00 | 0.00 | 75 | 1013.8 |
| 20260506132012 | 29 | 143 | 56.3 | 69.2 | 0.00 | 0.00 | 0.00 | 75 | 1013.7 |
| 20260506131509 | 29 | 112 | 43.5 | 69.2 | 0.00 | 0.00 | 0.00 | 75 | 1013.7 |
| 20260506131005 | 29 | 119 | 49.9 | 72.4 | 0.00 | 0.00 | 0.00 | 75 | 1013.8 |
| 20260506130502 | 29 | 108 | 43.5 | 56.3 | 0.00 | 0.00 | 0.00 | 75 | 1013.6 |
| 20260506125959 | 29 | 102 | 37.0 | 56.3 | 0.00 | 0.00 | 0.00 | 76 | 1013.7 |
| 20260506125458 | 28 | 131 | 41.8 | 72.4 | 0.00 | 0.00 | 0.00 | 76 | 1013.6 |
| 20260506124955 | 28 | 117 | 38.6 | 53.1 | 0.00 | 0.00 | 0.00 | 76 | 1013.6 |
| 20260506124453 | 28 | 115 | 49.9 | 61.2 | 0.00 | 0.00 | 0.00 | 76 | 1013.6 |
| 20260506123950 | 28 | 104 | 27.4 | 61.2 | 0.00 | 0.00 | 0.00 | 77 | 1013.6 |
| 20260506123448 | 28 | 139 | 37.0 | 72.4 | 0.00 | 0.00 | 0.00 | 77 | 1013.4 |
| 20260506122946 | 28 | 117 | 32.2 | 64.4 | 0.00 | 0.00 | 0.00 | 77 | 1013.3 |
| 20260506122442 | 28 | 109 | 33.8 | 61.2 | 0.00 | 0.00 | 0.00 | 77 | 1013.3 |
| 20260506121941 | 28 | 122 | 46.7 | 69.2 | 0.00 | 0.00 | 0.00 | 77 | 1013.4 |
| 20260506121437 | 28 | 116 | 43.5 | 72.4 | 0.00 | 0.00 | 0.00 | 78 | 1013.4 |
| 20260506120934 | 28 | 110 | 54.7 | 72.4 | 0.00 | 0.00 | 0.00 | 78 | 1013.4 |
| 20260506120432 | 28 | 136 | 41.8 | 61.2 | 0.00 | 0.00 | 0.00 | 78 | 1013.1 |
| 20260506115929 | 27 | 117 | 46.7 | 69.2 | 0.00 | 0.00 | 0.00 | 79 | 1013.3 |
| 20260506115427 | 27 | 114 | 45.1 | 61.2 | 0.00 | 0.00 | 0.00 | 79 | 1013.3 |
| 20260506114925 | 27 | 101 | 43.5 | 56.3 | 0.00 | 0.00 | 0.00 | 79 | 1013.1 |
| 20260506114423 | 27 | 151 | 45.1 | 61.2 | 0.00 | 0.00 | 0.00 | 79 | 1013.4 |
| 20260506113921 | 27 | 126 | 33.8 | 61.2 | 0.00 | 0.00 | 0.00 | 79 | 1013.2 |
| 20260506113418 | 27 | 125 | 43.5 | 53.1 | 0.00 | 0.00 | 0.00 | 80 | 1013.2 |
| 20260506112914 | 27 | 107 | 41.8 | 72.4 | 0.00 | 0.00 | 0.00 | 79 | 1013.1 |
| 20260506112412 | 27 | 110 | 41.8 | 61.2 | 0.00 | 0.00 | 0.00 | 80 | 1013.2 |
| 20260506111909 | 27 | 128 | 30.6 | 45.1 | 0.00 | 0.00 | 0.00 | 80 | 1013.0 |
| 20260506111407 | 27 | 135 | 33.8 | 61.2 | 0.00 | 0.00 | 0.00 | 80 | 1013.0 |
| 20260506110904 | 27 | 115 | 41.8 | 61.2 | 0.00 | 0.00 | 0.00 | 80 | 1013.0 |
| 20260506110402 | 27 | 125 | 40.2 | 48.3 | 0.00 | 0.00 | 0.00 | 81 | 1012.9 |
| 20260506105858 | 27 | 140 | 35.4 | 53.1 | 0.00 | 0.00 | 0.00 | 81 | 1012.9 |
| 20260506105354 | 27 | 101 | 20.9 | 48.3 | 0.00 | 0.00 | 0.00 | 81 | 1012.6 |
| 20260506104852 | 27 | 100 | 27.4 | 45.1 | 0.00 | 0.00 | 0.00 | 81 | 1012.6 |
| 20260506104350 | 26 | 120 | 27.4 | 37.0 | 0.00 | 0.00 | 0.00 | 81 | 1012.6 |
| 20260506103847 | 26 | 107 | 29.0 | 40.2 | 0.00 | 0.00 | 0.00 | 81 | 1012.6 |
| 20260506103345 | 26 | 142 | 27.4 | 40.2 | 0.00 | 0.00 | 0.00 | 81 | 1012.5 |
| 20260506102842 | 26 | 144 | 30.6 | 48.3 | 0.00 | 0.00 | 0.00 | 81 | 1012.6 |
| 20260506102340 | 26 | 116 | 16.1 | 48.3 | 0.00 | 0.00 | 0.00 | 81 | 1012.2 |
| 20260506101837 | 26 | 134 | 19.3 | 37.0 | 0.00 | 0.00 | 0.00 | 81 | 1012.3 |
| 20260506101333 | 26 | 118 | 27.4 | 45.1 | 0.00 | 0.00 | 0.00 | 81 | 1012.2 |
| 20260506100831 | 26 | 121 | 20.9 | 40.2 | 0.00 | 0.00 | 0.00 | 81 | 1012.0 |
| 20260506100329 | 26 | 101 | 27.4 | 53.1 | 0.00 | 0.00 | 0.00 | 81 | 1012.1 |
| 20260506095827 | 26 | 130 | 30.6 | 53.1 | 0.00 | 0.00 | 0.00 | 80 | 1012.3 |
| 20260506095323 | 26 | 160 | 27.4 | 40.2 | 0.00 | 0.00 | 0.00 | 81 | 1012.3 |
| 20260506094820 | 26 | 145 | 37.0 | 53.1 | 0.00 | 0.00 | 0.00 | 80 | 1012.1 |
| 20260506094319 | 26 | 111 | 38.6 | 69.2 | 0.00 | 0.00 | 0.00 | 81 | 1012.2 |
| 20260506093817 | 26 | 111 | 29.0 | 48.3 | 0.00 | 0.00 | 0.00 | 80 | 1012.1 |
| 20260506093313 | 26 | 136 | 25.7 | 45.1 | 0.00 | 0.00 | 0.00 | 80 | 1012.4 |
| 20260506092812 | 26 | 148 | 30.6 | 40.2 | 0.00 | 0.00 | 0.00 | 80 | 1012.2 |
| 20260506092309 | 26 | 151 | 32.2 | 45.1 | 0.00 | 0.00 | 0.00 | 80 | 1012.3 |
| 20260506091806 | 26 | 126 | 41.8 | 48.3 | 0.00 | 0.00 | 0.00 | 80 | 1012.1 |
| 20260506091304 | 26 | 120 | 33.8 | 56.3 | 0.00 | 0.00 | 0.00 | 80 | 1012.1 |
| 20260506090801 | 26 | 100 | 30.6 | 53.1 | 0.00 | 0.00 | 0.00 | 80 | 1012.1 |
| 20260506090258 | 26 | 149 | 29.0 | 48.3 | 0.00 | 0.00 | 0.00 | 80 | 1011.9 |
| 20260506085755 | 26 | 100 | 35.4 | 45.1 | 0.00 | 0.00 | 0.00 | 80 | 1012.0 |
| 20260506085251 | 26 | 156 | 37.0 | 48.3 | 0.00 | 0.00 | 0.00 | 80 | 1011.8 |
| 20260506084748 | 26 | 142 | 33.8 | 53.1 | 0.00 | 0.00 | 0.00 | 80 | 1011.7 |
| 20260506084244 | 26 | 113 | 33.8 | 48.3 | 0.00 | 0.00 | 0.00 | 80 | 1012.0 |
| 20260506083741 | 26 | 122 | 16.1 | 32.2 | 0.00 | 0.00 | 0.00 | 80 | 1011.7 |
| 20260506083239 | 26 | 106 | 24.1 | 61.2 | 0.00 | 0.00 | 0.00 | 80 | 1011.7 |
| 20260506082736 | 26 | 124 | 33.8 | 45.1 | 0.00 | 0.00 | 0.00 | 80 | 1011.7 |
| 20260506082231 | 26 | 122 | 25.7 | 37.0 | 0.00 | 0.00 | 0.00 | 80 | 1011.8 |
| 20260506081730 | 26 | 124 | 41.8 | 56.3 | 0.00 | 0.00 | 0.00 | 80 | 1011.7 |
| 20260506081227 | 26 | 124 | 43.5 | 53.1 | 0.00 | 0.00 | 0.00 | 80 | 1011.7 |
| 20260506080725 | 26 | 96 | 22.5 | 45.1 | 0.00 | 0.00 | 0.00 | 80 | 1011.5 |
| 20260506080221 | 26 | 129 | 25.7 | 53.1 | 0.00 | 0.00 | 0.00 | 80 | 1011.7 |
| 20260506073205 | 26 | 143 | 46.7 | 64.4 | 0.00 | 0.00 | 0.00 | 79 | 1011.6 |
| 20260506072701 | 26 | 119 | 40.2 | 61.2 | 0.00 | 0.00 | 0.00 | 80 | 1011.7 |
| 20260506072159 | 26 | 141 | 25.7 | 56.3 | 0.00 | 0.00 | 0.00 | 80 | 1011.7 |
| 20260506071656 | 26 | 144 | 35.4 | 56.3 | 0.00 | 0.00 | 0.00 | 80 | 1011.5 |
| 20260506071154 | 26 | 83 | 40.2 | 61.2 | 0.00 | 0.00 | 0.00 | 80 | 1011.5 |
| 20260506070651 | 26 | 126 | 27.4 | 48.3 | 0.00 | 0.00 | 0.00 | 80 | 1011.4 |
| 20260506070148 | 26 | 120 | 38.6 | 64.4 | 0.00 | 0.00 | 0.00 | 80 | 1011.5 |
| 20260506062125 | 26 | 120 | 27.4 | 64.4 | 0.00 | 0.00 | 0.00 | 79 | 1012.0 |
| 20260506061621 | 26 | 128 | 38.6 | 56.3 | 0.00 | 0.00 | 0.00 | 79 | 1012.1 |
| 20260506061119 | 26 | 116 | 25.7 | 64.4 | 0.00 | 0.00 | 0.00 | 79 | 1012.2 |
| 20260506060617 | 26 | 144 | 40.2 | 56.3 | 0.00 | 0.00 | 0.00 | 79 | 1012.1 |
| 20260506060114 | 26 | 119 | 38.6 | 53.1 | 0.00 | 0.00 | 0.00 | 79 | 1012.1 |
| 20260506051046 | 26 | 127 | 43.5 | 56.3 | 0.00 | 0.00 | 0.00 | 81 | 1012.1 |
| 20260506050543 | 26 | 110 | 32.2 | 61.2 | 0.00 | 0.00 | 0.00 | 81 | 1012.5 |
| 20260506045034 | 26 | 158 | 22.5 | 56.3 | 0.00 | 0.00 | 0.00 | 81 | 1012.7 |
| 20260506044532 | 26 | 121 | 29.0 | 61.2 | 0.00 | 0.00 | 0.00 | 81 | 1012.7 |
| 20260506044028 | 27 | 118 | 38.6 | 45.1 | 0.00 | 0.00 | 0.00 | 81 | 1012.6 |
| 20260506043526 | 26 | 126 | 37.0 | 48.3 | 0.00 | 0.00 | 0.00 | 81 | 1012.8 |